Find Starlink 37818

NORAD ID: 69333 Int'l Des: 2026-122 Owner: SPXS Country: US Constellation: starlink operational
LEOCIRCULARRETROGRADE

当前视图

正在加载3D地球...

About Starlink 37818

Starlink 37818 (NORAD 69333) is a starlink constellation satellite (v2 mini) launched Jun 3, 2026 by SPXS of US. It operates in LEO, CIRCULAR, RETROGRADE orbit with a mass of 575.00 kg.

即将过境

Passes for default location (London). Set your location on the main map for personalized predictions.

高度历史

Loading altitude history...

两行轨道根数

1 69333U 26122E 26224.07115889 .00007691 00000-0 24042-3 0 9990
2 69333 97.2839 253.2092 0001507 95.3426 264.7989 15.33431317 10758
Epoch: Aug 12, 2026 • Age: 7 hours

当前状态

高度 474.5 km
远地点 / 近地点 N/A
速度 7.63 km/s
星下点 58.09°N, 3.03°W
发射日期 Jun 3, 2026
运行时间 0.1 years
类型 internet

技术详情

分类 Payload
质量 575.00 kg
干质量 530.00 kg
总质量 575.00 kg
长度 0.30 m
直径 4.10 m
跨度 29.00 m
形状 Box + pan
制造商 SPXS
平台类型 Starlink V2MO
阶段状态 In Orbit
所有者/国家 SPXS/US

Most Searched